Anniston, AL

1:26 AM CDT on May 27, 2018 (GMT -0500)
Anniston Metro

Weather History for KANB - February, 2014

Change the Weather History Date:

Tuesday, February 18, 2014

  Actual Average Record
Temperature  
Mean Temperature 58 °F 48 °F  
Max Temperature 72 °F 59 °F 78 °F (1951)
Min Temperature 43 °F 37 °F 6 °F (1905)
Degree Days  
Heating Degree Days 7    
Month to date heating degree days 373  
Since 1 July heating degree days 2341  
Growing Degree Days 8 (Base 50)    
Moisture  
Dew Point 48 °F    
Average Humidity 70    
Maximum Humidity 100    
Minimum Humidity 40    
Precipitation  
Precipitation 0.00 in 0.18 in 1.45 in (1961)
Month to date precipitation 3.11 3.21  
Year to date precipitation 6.16 7.73  
Sea Level Pressure  
Sea Level Pressure 30.14 in    
Wind  
Wind Speed 5 mph (ESE)    
Max Wind Speed 15 mph    
Max Gust Speed 22 mph    
T = Trace of Precipitation, MM = Missing Value Source: NWS Daily Summary

Daily Weather History Graph

Daily Weather History Graph

Search for Another Location

Airport or City:

Astronomy

Feb. 18, 2014 Rise Set
Actual Time 6:24 AM CST 5:30 PM CST
Civil Twilight 5:59 AM CST 5:56 PM CST
Nautical Twilight 5:30 AM CST 6:25 PM CST
Astronomical Twilight 5:01 AM CST 6:54 PM CST
Moon 9:09 PM CST (2/18) 8:08 AM CST (2/18)
Length of Visible Light 11h 56m
Length of Day
11h 06m
Waning Gibbous, 87% of the Moon is Illuminated
Feb 18
Waning Gibbous
Feb 22
Last Quarter
Mar 1
New
Mar 8
First Quarter
Mar 16
Full

Hourly Weather History & Observations

Time (CST) Temp. Windchill Dew Point Humidity Pressure Visibility Wind Dir Wind Speed Gust Speed Precip Events Conditions
12:09 AM 50.0 °F - 50.0 °F 100% 30.13 in - West 3.5 mph - N/A   Mostly Cloudy
12:53 AM 48.0 °F - 46.9 °F 96% 30.14 in - Calm Calm - N/A   Scattered Clouds
1:02 AM 50.0 °F - 48.0 °F 93% 30.14 in - Calm Calm - N/A   Mostly Cloudy
1:53 AM 46.9 °F - 46.0 °F 97% 30.14 in - South 3.5 mph - N/A   Overcast
2:53 AM 46.0 °F - 45.0 °F 96% 30.15 in - Calm Calm - N/A   Overcast
3:17 AM 46.9 °F - 46.0 °F 97% 30.15 in - Calm Calm - N/A   Overcast
3:34 AM 48.0 °F - 46.0 °F 93% 30.15 in - NNE 5.8 mph - N/A   Mostly Cloudy
3:53 AM 46.9 °F - 45.0 °F 93% 30.16 in - East 3.5 mph - N/A   Overcast
4:19 AM 46.0 °F 44.8 °F 44.1 °F 93% 30.16 in - NE 3.5 mph - N/A   Scattered Clouds
4:33 AM 45.0 °F 43.5 °F 44.1 °F 97% 30.16 in - East 3.5 mph - N/A   Scattered Clouds
4:38 AM 45.0 °F 42.6 °F 44.1 °F 97% 30.16 in - East 4.6 mph - N/A   Mostly Cloudy
4:53 AM 44.1 °F - 43.0 °F 96% 30.18 in - Calm Calm - N/A   Overcast
5:14 AM 44.1 °F 40.8 °F 43.0 °F 96% 30.18 in - East 5.8 mph - N/A   Overcast
5:50 AM 44.6 °F 42.2 °F 42.8 °F 93% 30.18 in - ENE 4.6 mph - N/A   Scattered Clouds
5:53 AM 44.1 °F 41.5 °F 42.1 °F 93% 30.19 in - ENE 4.6 mph - N/A   Scattered Clouds
6:53 AM 44.1 °F 42.5 °F 43.0 °F 96% 30.21 in - NNE 3.5 mph - N/A   Partly Cloudy
7:05 AM 46.0 °F 44.8 °F 44.1 °F 93% 30.20 in - NE 3.5 mph - N/A   Mostly Cloudy
7:40 AM 50.0 °F - 46.9 °F 89% 30.21 in - ENE 4.6 mph - N/A   Scattered Clouds
7:53 AM 51.1 °F - 45.0 °F 80% 30.22 in - East 8.1 mph - N/A   Clear
8:53 AM 54.0 °F - 39.9 °F 59% 30.24 in - East 8.1 mph - N/A   Clear
9:53 AM - - - N/A% 30.22 in - North - - N/A   Clear
10:53 AM 63.0 °F - 41.0 °F 45% 30.20 in - ENE 6.9 mph - N/A   Partly Cloudy
11:53 AM 68.0 °F - 45.0 °F 43% 30.17 in - East 5.8 mph - N/A   Clear
12:53 PM 70.0 °F - 45.0 °F 41% 30.13 in - West 3.5 mph - N/A   Scattered Clouds
1:53 PM 71.1 °F - 48.0 °F 44% 30.11 in - SSE 5.8 mph - N/A   Mostly Cloudy
2:53 PM 69.1 °F - 51.1 °F 53% 30.10 in - South 6.9 mph - N/A   Overcast
3:53 PM 66.9 °F - 53.1 °F 61% 30.09 in - South 5.8 mph - N/A   Overcast
4:32 PM 66.0 °F - 54.0 °F 65% 30.08 in - SSW 8.1 mph - N/A   Overcast
4:53 PM 66.0 °F - 55.0 °F 68% 30.09 in - South 8.1 mph - N/A   Overcast
5:34 PM 64.9 °F - 55.9 °F 73% 30.08 in - SSW 5.8 mph - N/A   Overcast
5:53 PM 64.0 °F - 55.9 °F 75% 30.09 in - Variable 3.5 mph - N/A   Overcast
6:53 PM 63.0 °F - 55.9 °F 78% 30.08 in - Variable 3.5 mph - N/A   Mostly Cloudy
7:53 PM 62.1 °F - 57.0 °F 84% 30.06 in - Variable 3.5 mph - N/A   Clear
8:53 PM 61.0 °F - 57.0 °F 87% 30.05 in - Calm Calm - N/A   Clear
9:53 PM 61.0 °F - 57.0 °F 87% 30.05 in - West 3.5 mph - N/A   Mostly Cloudy
10:53 PM 64.0 °F - 57.9 °F 80% 30.04 in - SSW 6.9 mph - N/A   Mostly Cloudy
11:53 PM 63.0 °F - 57.0 °F 81% 30.04 in - SW 10.4 mph - N/A   Partly Cloudy